Regional Weather Roundup
Issued by NWS Midland/Odessa, TX

Home | Current Version | Previous Version | Text Only | Print | Product List | Glossary On
Versions: 1 2 3 4 5 6 7 8 9 10 11 12 13 14 15 16 17 18 19 20 21 22 23 24 25 26 27 28 29 30 31 32 33 34 35 36 37 38 39 40 41 42 43 44 45 46 47 48 49 50
000
ASUS44 KMAF 220210
RWRMAF
MIDLAND AREA WEATHER ROUNDUP
NATIONAL WEATHER SERVICE MIDLAND TX
900 PM CDT THU AUG 21 2014

...IN SOUTHWEST TEXAS AND SOUTHEAST NEW MEXICO...

CITY           SKY/WX    TMP DP  RH WIND       PRES   REMARKS
ALPINE         MOCLDY    77  62  58 CALM      30.18R
ANDREWS        FAIR      78  62  56 S24G36    30.02R
ARTESIA        PTCLDY    90  55  31 SE16G23   29.96R
BIG SPRING     CLEAR     89  63  41 SE20G29   30.00R
CARLSBAD       MOCLDY    91  54  28 S20       29.95R
DRYDEN           N/A     81  68  64 W3        29.99R
FORT STOCKTON  MOCLDY    81  63  54 S6        30.04R
GUAD PASS      CLOUDY    74  57  55 SW10      30.18R
HOBBS          MOCLDY    84  57  39 SE16G26   30.02R
MARFA          MOCLDY    75  61  60 E14       30.16R
MIDLAND AIRPK  CLOUDY    91  63  38 SW20G30   30.00R THUNDER
MIDLAND INTL   MOCLDY    77  61  57 W21G32    30.02R
ODESSA         LGT RAIN  74  63  68 W8        30.02R
PECOS          CLOUDY    83  61  47 SE6       29.97S
PRESIDIO       FAIR      86  65  48 N6        29.94S
SEMINOLE       PTCLDY    85  56  36 S18G30    30.01R
SNYDER         CLEAR     90  64  41 S14       29.98R
WINK           CLOUDY    83  63  50 SE15      29.98R
$$
...OTHER STATIONS IN TEXAS...

CITY           SKY/WX    TMP DP  RH WIND       PRES   REMARKS
ABILENE        CLEAR     90  61  37 S12       29.97R
AMARILLO       CLEAR     81  59  47 SE7       29.99R
AUSTIN         CLEAR     91  68  46 S17G28    29.98R
BROWNSVILLE    PTCLDY    84  77  79 SE9       30.01R
CORPUS CHRISTI PTCLDY    85  77  77 SE20      30.01R
DALLAS FTW     CLEAR     92  62  36 S10       29.95R
DEL RIO        CLEAR     95  63  34 E7        29.89S
EL PASO        CLOUDY    86  54  33 S18G28    30.01R
HOUSTON INT    PTCLDY    85  73  67 S9        30.06R
LUBBOCK        PTCLDY    87  60  40 SE14      29.98R
SAN ANGELO     CLEAR     89  64  43 S9        29.97R
SAN ANTONIO    PTCLDY    91  73  55 SE20G30   29.99R
WACO           CLEAR     92  62  36 SE15      29.96S
WICHITA FALLS  NOT AVBL
$$
...OTHER LOCATIONS IN NEW MEXICO...

CITY           SKY/WX    TMP DP  RH WIND       PRES   REMARKS
ALAMAGORDO     MOCLDY    86  45  23 S8        30.02R
ALBUQUERQUE    PTCLDY    83  37  19 S6        30.08R
CANNON AFB     CLEAR     82  51  33 SW6       30.02R
CLOVIS           N/A     86  52  30 S10       30.03S
HOLLOMAN AFB   MOCLDY    90  46  22 S12       29.99R
ROSWELL        PTCLDY    87  51  28 S7        29.95R
RUIDOSO        PTCLDY    70  48  46 SW8       30.24R
SANTA FE       CLEAR     77  35  21 S3        30.15R
TRUTH OR CONSE MOCLDY    84  41  21 S13       30.04R
TUCUMCARI      CLEAR     86  46  24 S8        29.96R
$$



USA.gov is the U.S. government's official web portal to all federal, state and local government web resources and services.